www.pogodaiklimat.ru
ПОГОДА в Аэропорту Йохан Пенгель
Время
(UTC), дата
19 24.10
20 24.10
21 24.10
22 24.10
23 24.10
00 25.10
01 25.10
02 25.10
03 25.10
04 25.10
05 25.10
06 25.10
07 25.10
08 25.10
09 25.10
10 25.10
11 25.10
12 25.10
13 25.10
14 25.10
15 25.10
16 25.10
17 25.10
18 25.10
19 25.10
20 25.10
21 25.10
22 25.10
23 25.10
00 26.10
01 26.10
02 26.10
03 26.10
04 26.10
05 26.10
06 26.10
07 26.10
09 26.10
10 26.10
11 26.10
12 26.10
13 26.10
14 26.10
15 26.10
16 26.10
17 26.10
18 26.10
19 26.10
20 26.10
21 26.10
22 26.10
23 26.10
00 27.10
01 27.10
02 27.10
03 27.10
06 27.10
07 27.10
08 27.10
09 27.10
10 27.10
11 27.10
12 27.10
13 27.10
14 27.10
15 27.10
16 27.10
17 27.10
18 27.10
19 27.10
20 27.10
21 27.10
22 27.10
23 27.10
00 28.10
01 28.10
02 28.10
03 28.10
04 28.10
05 28.10
06 28.10
07 28.10
08 28.10
09 28.10
10 28.10
11 28.10
12 28.10
13 28.10
15 28.10
16 28.10
17 28.10
18 28.10
19 28.10
20 28.10
21 28.10
22 28.10
23 28.10
00 29.10
01 29.10
02 29.10
03 29.10
04 29.10
05 29.10
06 29.10
07 29.10
08 29.10
09 29.10
10 29.10
11 29.10
12 29.10
13 29.10
14 29.10
15 29.10
16 29.10
17 29.10
18 29.10
19 29.10
20 29.10
21 29.10
22 29.10
23 29.10
00 30.10
01 30.10
02 30.10
03 30.10
04 30.10
05 30.10
06 30.10
07 30.10
08 30.10
09 30.10
10 30.10
11 30.10
12 30.10
13 30.10
14 30.10
15 30.10
16 30.10
17 30.10
18 30.10
19 30.10
20 30.10
21 30.10
22 30.10
23 30.10
00 31.10
02 31.10
03 31.10
04 31.10
05 31.10
06 31.10
07 31.10
08 31.10
09 31.10
10 31.10
11 31.10
12 31.10
13 31.10
14 31.10
15 31.10
16 31.10
17 31.10
18 31.10
19 31.10
Ветер
(напр.,м/с)
Видим. Явления Облачность Т
(С)
Тd
(С)
f
(%)
Тe
(С)
Тes
(С)
Комфортность P
(гПа)
Po
(гПа)
Тmin
(С)
Tmax
(С)
R
(мм)
R24
(мм)
S
(см)
С 5 н/о ливневой дождь 5/5 600 м
[Cb]
+32.0 +24.0 63 +44 +46 опасность
перегрева
1008.0 1006.0
ЮВ 6 4000 м гроза, ливневой дождь 8/8 300 м
[Cb]
+25.0 +25.0 100 +36 +36 очень
душно
1009.0 1007.0
В 5 10 км гроза, ливневой дождь 9/8 300 м
[Cb cap Ac cuf Ci ing]
+25.8 +24.2 89 +36 +36 очень
душно
1008.8 1007.1
нст 1 10 км 5/5 300 м +25.0 +24.0 94 +34 +34 очень
душно
1010.0 1007.9
Ю 2 10 км слаб. ливневой дождь 8/8 360 м
[Cb]
+25.0 +24.0 94 +34 +34 очень
душно
1011.0 1008.9
нст 2 20 км в посл. час ливневой дождь {гроза} туман 9/8 360 м
[Cb cap Ac cuf Ci sp]
+25.2 +24.5 100 +36 +36 очень
душно
1011.0 1009.3 14 14.4
СЗ 2 10 км 5/5 300 м +25.0 +25.0 100 +36 +36 очень
душно
1011.0 1008.9
нст 1 10 км 2/2 300 м +25.0 +24.0 94 +34 +34 очень
душно
1011.0 1008.9
С 2 20 км 6/3 600 м
[Sc Ac trans Ci sp]
+24.8 +24.4 94 +34 +34 очень
душно
1011.2 1009.5
ЮЗ 1 10 км 2/2 150 м +25.0 +24.0 94 +34 +34 очень
душно
1011.0 1008.9
З 1 9000 м 5/5 60 м +24.0 +24.0 100 +33 +33 очень
душно
1010.0 1007.9
В 1 20 км 4/3 60 м
[St Ci sp]
+24.0 +23.3 94 +32 +32 очень
душно
1009.9 1008.2
нст 1 10 км 2/2 60 м
[Frnb]
+24.0 +23.0 94 +32 +32 очень
душно
1010.0 1007.9
ЮЗ 1 10 км 2/2 60 м +24.0 +23.0 94 +32 +32 очень
душно
1010.0 1007.9
нст 1 20 км 3/1 60 м
[Cb cap Ac trans Ci sp]
+23.2 +22.5 100 +32 +32 очень
душно
1010.4 1008.7
З 1 10 км 2/2 90 м +23.0 +22.0 94 +31 +31 очень
душно
1011.0 1008.9
нст 1 10 км 5/5 150 м +24.0 +22.0 89 +31 +32 очень
душно
1012.0 1009.9
ЮВ 3 20 км 5/1 300 м
[Cu hum Ac trans Ci sp]
+26.6 +24.6 89 +39 +44 очень
душно
1012.7 1011.0 14
В 4 10 км 5/5 450 м +30.0 +24.0 70 +41 +45 опасность
перегрева
1013.0 1011.0
В 6 10 км 5/5 660 м +31.0 +23.0 62 +41 +44 опасность
перегрева
1013.0 1011.0
В 10 20 км 5/5 750 м
[Cu med, cong Ci sp]
+32.5 +22.0 52 +41 +47 опасность
перегрева
1012.8 1011.1
нст 2 10 км 5/5 900 м +33.0 +22.0 52 +41 +51 опасность
перегрева
1011.0 1009.0
В 6 10 км слаб. ливневой дождь 5/5 600 м
[Cb]
+33.0 +23.0 56 +43 +47 опасность
перегрева
1010.0 1008.0
ЮВ 8 10 км гроза без осадков {ливн. дождь} туман 8/6 540 м
[Cb cap Ac cuf Ci ing]
+31.7 +22.9 59 +42 +47 опасность
перегрева
1009.3 1007.6 0.0
Ю 3 н/о ливневой дождь 5/5 540 м
[Cb]
+28.0 +25.0 84 +40 +44 очень
душно
1009.0 1007.0
В 3 10 км 5/5 540 м +29.0 +24.0 74 +40 +41 очень
душно
1009.0 1007.0
С 6 20 км {гроза, ливн. дождь} 8/5 450 м
[Cb cap Ac lent Ci ing]
+28.4 +24.3 79 +39 +39 очень
душно
1009.5 1007.8
С 3 10 км 2/2 450 м +27.0 +25.0 89 +39 +39 очень
душно
1010.0 1008.0
СВ 3 10 км 2/2 300 м +27.0 +25.0 89 +39 +39 очень
душно
1010.0 1008.0
СВ 6 20 км {гроза, ливн. дождь} 5/1 600 м
[Sc Ci sp]
+26.6 +24.3 84 +37 +37 очень
душно
1011.4 1009.7 0.0
СВ 2 10 км ясно +26.0 +24.0 89 +36 +36 очень
душно
С 2 10 км ясно +26.0 +24.0 89 +36 +36 очень
душно
1012.0 1009.9
СВ 4 20 км 4/0
[Ci sp]
+25.4 +24.1 94 +34 +34 очень
душно
1012.0 1010.3
штиль 0 10 км ясно +25.0 +24.0 94 +34 +34 очень
душно
1011.0 1008.9
штиль 0 10 км ясно +25.0 +24.0 94 +34 +34 очень
душно
1010.0 1007.9
нст 1 20 км 1/0
[Ci sp]
+24.1 +23.5 100 +33 +33 очень
душно
1010.0 1008.3
ЮЗ 1 10 км ясно +24.0 +23.0 94 +32 +32 очень
душно
1010.0 1007.9
ЮВ 1 10 км дымка 5/3 240 м
[Cb cap Ci sp]
+23.7 +23.1 94 +32 +32 очень
душно
1010.0 1008.3
штиль 0 2500 м дымка 2/2 150 м +24.0 +23.0 94 +32 +32 очень
душно
1010.0 1007.9
ЮВ 2 10 км 2/2 240 м +25.0 +24.0 94 +34 +36 очень
душно
1011.0 1008.9
ЮВ 7 10 км мгла 3/1 360 м
[Cu med, cong Ci sp]
+28.7 +24.9 79 +42 +45 опасность
перегрева
1012.1 1010.4 0.0
В 5 10 км 5/5 600 м +30.0 +24.0 70 +41 +44 опасность
перегрева
1013.0 1011.0
В 4 10 км 5/5 750 м +32.0 +24.0 63 +44 +49 опасность
перегрева
1012.0 1010.0
В 3 10 км 5/5 900 м +32.0 +23.0 59 +42 +50 опасность
перегрева
1011.0 1009.0
В 3 10 км 8/8 900 м +33.0 +22.0 52 +41 +45 опасность
перегрева
1010.0 1008.0
С 6 10 км 5/5 450 м +32.0 +22.0 56 +41 +44 опасность
перегрева
1009.0 1007.0
С 12 15 км гроза без осадков туман 8/8 450 м
[Cb cap Ac cuf Ci ing]
+32.4 +22.6 59 +42 +45 опасность
перегрева
1008.2 1006.5
СВ 3 10 км гроза, ливневой дождь 5/5 450 м
[Cb]
+31.0 +23.0 62 +41 +44 опасность
перегрева
1008.0 1006.0
Ю 2 10 км гроза без осадков 5/5 300 м
[Cb]
+28.0 +25.0 84 +40 +42 очень
душно
1008.0 1006.0
ЮЗ 3 20 км в посл. час гроза {ливн. дождь} 8/5 300 м
[Cb cap Ac cuf Ci ing]
+28.4 +25.3 84 +40 +41 очень
душно
1008.4 1006.7
В 3 10 км 5/5 450 м +28.0 +26.0 89 +42 +42 опасность
перегрева
1008.0 1006.0
В 3 10 км 2/2 360 м +27.0 +25.0 89 +39 +39 очень
душно
1010.0 1008.0
В 5 20 км зарница {гроза, ливн. дождь} 4/1 450 м
[Cb cap Ac trans Ci ing]
+26.5 +24.5 89 +39 +39 очень
душно
1010.4 1008.7 4 4.3
нст 1 10 км 2/2 450 м +26.0 +25.0 94 +37 +37 очень
душно
1011.0 1009.0
штиль 0 10 км 5/5 300 м +26.0 +25.0 94 +37 +37 очень
душно
1011.0 1009.0
штиль 0 20 км 4/4 300 м
[Cu Sc Ac trans Cs]
+26.0 +24.0 89 +36 +36 очень
душно
1011.0 1009.0
нст 2 20 км 3/0
[Ci sp]
+24.9 +24.0 94 +34 +34 очень
душно
1009.3 1007.6
нст 1 10 км ясно +25.0 +24.0 94 +34 +34 очень
душно
1009.0 1006.9
ЮЗ 1 10 км ясно +24.0 +24.0 100 +33 +33 очень
душно
1009.0 1006.9
нст 1 20 км 4/1 450 м
[Cb calv Ac lent Ci sp]
+24.0 +24.0 100 +33 +33 очень
душно
1010.0 1007.9
нст 1 8000 м 2/2 90 м +24.0 +23.0 94 +32 +32 очень
душно
1010.0 1007.9
штиль 0 10 км 2/2 240 м +25.0 +24.0 94 +34 +36 очень
душно
1011.0 1008.9
В 5 20 км 6/3 240 м
[Cb cap Ac cuf Ci sp]
+27.9 +24.5 84 +40 +45 очень
душно
1011.5 1009.8 4
В 4 10 км 5/5 450 м +29.0 +25.0 79 +42 +46 опасность
перегрева
1011.0 1009.0
В 3 10 км 8/8 540 м +30.0 +24.0 70 +41 +44 опасность
перегрева
1011.0 1009.0
В 7 10 км слаб. ливневой дождь 8/6 600 м
[Cu med, cong Ci sp]
+31.1 +24.5 70 +44 +47 опасность
перегрева
1010.1 1008.4
В 6 2500 м сильн. ливневой дождь 5/5 540 м
[Cb]
+27.0 +25.0 89 +39 +43 очень
душно
1010.0 1008.0
В 3 н/о ливневой дождь 2/2 540 м
[Cb]
+30.0 +25.0 75 +43 +55 опасность
перегрева
1008.0 1006.0
В 3 20 км {ливн. дождь} 6/4 540 м
[Cb cap Ac cuf Ci ing]
+31.2 +23.0 62 +41 +51 опасность
перегрева
1006.9 1005.2 4
СВ 2 10 км гроза без осадков 5/5 240 м
[Cb]
+32.0 +24.0 63 +44 +51 опасность
перегрева
1006.0 1004.0
В 3 10 км гроза без осадков 5/5 240 м
[Cb]
+30.0 +22.0 62 +39 +40 очень
душно
1006.0 1004.0
ЮЗ 4 10 км гроза, ливневой дождь 9/6 240 м
[Cb cap Ac cuf Ci ing]
+25.4 +23.4 89 +33 +33 очень
душно
1006.8 1005.1
нст 1 10 км гроза без осадков 2/2 240 м
[Cb]
+26.0 +25.0 94 +37 +37 очень
душно
1007.0 1005.0
СВ 2 10 км 2/2 240 м +26.0 +25.0 94 +37 +37 очень
душно
1007.0 1005.0
нст 2 20 км {гроза, ливн. дождь} 6/3 240 м
[Cb cap Ac cuf Ci ing]
+25.7 +24.8 94 +37 +37 очень
душно
1008.4 1006.7 7 10.9
нст 1 10 км 5/5 300 м +26.0 +25.0 94 +37 +37 очень
душно
1009.0 1007.0
В 2 10 км 2/2 300 м +26.0 +25.0 94 +37 +37 очень
душно
1009.0 1007.0
ЮВ 2 20 км 8/3 750 м
[Sc Ac und Ci sp]
+25.4 +24.5 100 +36 +36 очень
душно
1009.3 1007.6
СВ 1 10 км 2/2 750 м +25.0 +25.0 100 +36 +36 очень
душно
1008.0 1006.0
В 1 10 км 2/2 750 м +25.0 +25.0 100 +36 +36 очень
душно
1008.0 1006.0
В 2 20 км 5/1 750 м
[Sc Ac trans Ci sp]
+25.4 +24.5 100 +36 +36 очень
душно
1007.0 1005.3
нст 1 10 км 5/5 210 м +25.0 +24.0 94 +34 +34 очень
душно
1006.0 1004.0
В 2 10 км ясно +25.0 +24.0 94 +34 +34 очень
душно
1006.0 1004.0
нст 2 20 км 3/1 750 м
[Sc Ci sp]
+24.5 +23.9 94 +34 +34 очень
душно
1006.9 1005.2
Ю 1 8000 м 2/2 750 м +24.0 +24.0 100 +33 +33 очень
душно
1008.0 1005.9
ЮВ 2 10 км 2/2 900 м +26.0 +24.0 89 +36 +38 очень
душно
1009.0 1007.0
ЮВ 8 20 км 4/3 360 м
[Cu Sc Ci sp]
+28.2 +24.8 82 +40 +41 очень
душно
1009.4 1007.7 11
ЮВ 5 10 км 5/5 540 м +30.0 +24.0 70 +41 +44 опасность
перегрева
1010.0 1008.0
ЮВ 8 20 км 5/5 750 м
[Cu med, cong Ci sp]
+32.2 +23.0 59 +42 +49 опасность
перегрева
1009.0 1007.3
ЮВ 4 10 км 5/5 900 м +33.0 +24.0 59 +45 +51 опасность
перегрева
1008.0 1006.0
Ю 3 10 км 5/5 750 м +33.0 +22.0 52 +41 +49 опасность
перегрева
1007.0 1005.0
В 8 20 км 5/4 1050 м
[Cu med, cong Ci sp]
+33.5 +22.4 50 +43 +47 опасность
перегрева
1005.6 1003.9
ЮВ 4 10 км 5/5 750 м +34.0 +23.0 53 +44 +47 опасность
перегрева
1005.0 1003.0
Ю 3 н/о ливневой дождь 5/5 540 м
[Cb]
+32.0 +23.0 59 +42 +44 опасность
перегрева
1005.0 1003.0
нст 2 10 км осадки на расстоянии {ливн. дождь} 8/5 450 м
[Cb calv Ac cuf Ci ing]
+31.2 +23.1 62 +41 +41 опасность
перегрева
1005.4 1003.7
Ю 1 10 км 2/2 450 м +30.0 +25.0 75 +43 +43 опасность
перегрева
1005.0 1003.0
СВ 3 10 км 2/2 450 м +28.0 +25.0 84 +40 +40 очень
душно
1007.0 1005.0
В 7 20 км {ливн. дождь} 6/1 750 м
[Sc Ac trans Ci sp]
+28.0 +25.3 84 +40 +40 очень
душно
1008.4 1006.7 0.0 0.0
В 3 10 км 2/2 450 м +27.0 +25.0 89 +39 +39 очень
душно
1009.0 1007.0
В 3 10 км 2/2 360 м +27.0 +24.0 84 +37 +37 очень
душно
1009.0 1007.0
В 5 20 км 8/5 360 м
[Cu Sc Ac trans Ci sp]
+26.2 +24.5 94 +37 +37 очень
душно
1009.2 1007.5
В 3 10 км 2/2 360 м +26.0 +24.0 89 +36 +36 очень
душно
1009.0 1007.0
В 2 10 км ясно +25.0 +24.0 94 +34 +34 очень
душно
1008.0 1006.0
В 4 20 км 8/0
[Ac trans Ci]
+25.2 +24.0 94 +34 +34 очень
душно
1007.5 1005.8
нст 1 10 км ясно +25.0 +24.0 94 +34 +34 очень
душно
1007.0 1005.0
нст 1 10 км ясно +24.0 +24.0 100 +33 +33 очень
душно
1007.0 1004.9
ЮЗ 2 20 км 8/0
[Ac trans Ci sp]
+24.2 +23.3 94 +32 +32 очень
душно
1008.1 1006.4
нст 1 10 км ясно +24.0 +23.0 94 +32 +32 очень
душно
1009.0 1006.9
ЮВ 2 10 км ясно +26.0 +24.0 89 +36 +38 очень
душно
1010.0 1008.0
ЮВ 10 20 км 6/1 240 м
[Cu med, cong Ac und Ci]
+28.0 +24.3 79 +39 +41 очень
душно
1010.5 1008.8 0.0
ЮВ 5 10 км 5/5 300 м +30.0 +24.0 70 +41 +44 опасность
перегрева
1011.0 1009.0
ЮВ 5 10 км 5/5 450 м +31.0 +24.0 66 +43 +47 опасность
перегрева
1011.0 1009.0
В 8 20 км 6/5 600 м
[Cu hum Ac trans Ci sp]
+32.0 +22.4 56 +41 +47 опасность
перегрева
1010.2 1008.5
ЮВ 5 10 км 5/5 750 м +34.0 +23.0 53 +44 +49 опасность
перегрева
1009.0 1007.0
В 5 10 км 5/5 900 м +33.0 +23.0 56 +43 +48 опасность
перегрева
1007.0 1005.0
В 10 20 км 6/5 1050 м
[Cu med, cong Ac trans Ci sp]
+34.6 +22.9 50 +45 +48 опасность
перегрева
1007.0 1005.3
В 5 10 км 5/5 1050 м +35.0 +22.0 47 +44 +46 опасность
перегрева
1006.0 1004.0
В 6 10 км 5/5 900 м +33.0 +23.0 56 +43 +44 опасность
перегрева
1006.0 1004.0
В 12 20 км в посл. час ливневой дождь 9/5 600 м
[Cu med, cong Ac trans Ci sp]
+30.0 +24.3 70 +41 +41 опасность
перегрева
1007.0 1005.3
В 4 10 км 5/5 360 м +29.0 +25.0 79 +42 +42 опасность
перегрева
1007.0 1005.0
В 4 10 км 2/2 600 м +28.0 +23.0 74 +37 +37 очень
душно
1008.0 1006.0
В 7 20 км {ливн. дождь} 6/3 750 м
[Cu med, cong Ac trans Ci sp]
+27.4 +23.7 84 +37 +37 очень
душно
1009.0 1007.3 0.2 0.2
В 2 10 км ясно +27.0 +24.0 84 +37 +37 очень
душно
1009.0 1007.0
В 2 10 км 2/2 300 м +26.0 +24.0 89 +36 +36 очень
душно
1010.0 1008.0
нст 1 10 км 2/2 300 м +26.0 +25.0 94 +37 +37 очень
душно
1009.0 1007.0
нст 1 10 км 2/2 300 м +26.0 +25.0 94 +37 +37 очень
душно
1009.0 1007.0
ЮЗ 1 10 км 2/2 300 м +25.0 +24.0 94 +34 +34 очень
душно
1009.0 1006.9
ЮВ 2 20 км 6/1 900 м
[Sc Ac trans Cc]
+25.2 +24.3 94 +34 +34 очень
душно
1008.1 1006.4
нст 1 10 км 2/2 450 м +25.0 +24.0 94 +34 +34 очень
душно
1009.0 1006.9
В 1 10 км 2/2 450 м +25.0 +24.0 94 +34 +34 очень
душно
1009.0 1006.9
Ю 2 20 км зарница 8/3 450 м
[Cb cap Ac trans Ci sp]
+25.0 +24.3 94 +34 +34 очень
душно
1009.4 1007.7
нст 1 10 км 2/2 300 м +25.0 +24.0 94 +34 +34 очень
душно
1011.0 1008.9
ЮВ 2 10 км 2/2 300 м +27.0 +25.0 89 +39 +40 очень
душно
1012.0 1010.0
ЮВ 9 20 км 5/4 240 м
[Cb cap Ac cuf Ci ing]
+28.6 +25.4 79 +42 +44 опасность
перегрева
1012.0 1010.3 0.2
ЮВ 5 10 км 5/5 300 м +30.0 +23.0 66 +40 +43 очень
душно
1013.0 1011.0
ЮВ 5 10 км 5/5 450 м +32.0 +23.0 59 +42 +46 опасность
перегрева
1012.0 1010.0
ЮВ 6 20 км 6/5 750 м
[Cu Sc Ac trans Ci sp]
+32.7 +22.6 55 +42 +42 опасность
перегрева
1011.0 1009.5
ЮВ 6 10 км 5/5 900 м +34.0 +23.0 53 +44 +48 опасность
перегрева
1010.0 1008.0
ЮВ 4 10 км 5/5 1050 м +34.0 +22.0 50 +43 +49 опасность
перегрева
1009.0 1007.0
ЮВ 8 20 км 6/5 1050 м
[Cu Sc Ac cuf Ci sp]
+34.2 +21.0 47 +41 +46 опасность
перегрева
1008.2 1006.5
ЮВ 3 10 км 5/5 1050 м +35.0 +21.0 44 +42 +45 опасность
перегрева
1007.0 1005.0
ЮВ 4 10 км 5/5 1050 м +34.0 +22.0 50 +43 +44 опасность
перегрева
1008.0 1006.0
ЮВ 4 20 км 8/4 900 м
[Cu Sc Ac trans Ci sp]
+33.0 +21.6 52 +41 +42 опасность
перегрева
1008.0 1006.3
СВ 5 10 км 5/5 600 м +31.0 +22.0 59 +40 +40 очень
душно
1008.0 1006.0
В 4 10 км 2/2 300 м +29.0 +24.0 74 +40 +40 очень
душно
1009.0 1007.0
В 7 20 км зарница 5/3 300 м
[Cb cap Ac trans Ci sp]
+28.4 +24.4 79 +39 +39 очень
душно
1010.3 1008.6
В 4 10 км 2/2 360 м +27.0 +25.0 89 +39 +39 очень
душно
1011.0 1009.0
В 7 20 км 4/0
[Ac trans Ci sp]
+26.7 +25.0 89 +39 +39 очень
душно
1010.7 1009.0
В 4 10 км ясно +26.0 +25.0 94 +37 +37 очень
душно
1010.0 1008.0
В 3 10 км ясно +26.0 +25.0 94 +37 +37 очень
душно
1009.0 1007.0
ЮЗ 2 20 км 3/0
[Ac lent Ci sp]
+25.4 +24.5 100 +36 +36 очень
душно
1009.7 1008.0
ЮВ 1 10 км ясно +25.0 +24.0 94 +34 +34 очень
душно
1010.0 1007.9
ЮЗ 1 10 км ясно +25.0 +24.0 94 +34 +34 очень
душно
1010.0 1007.9
В 2 20 км 5/1 450 м
[Cu hum Ac und Ci sp]
+24.4 +23.5 100 +33 +33 очень
душно
1010.4 1008.7
СВ 1 10 км 2/2 450 м +25.0 +24.0 94 +34 +34 очень
душно
1011.0 1008.9
В 3 10 км 2/2 450 м +27.0 +25.0 89 +39 +40 очень
душно
1011.0 1009.0
ЮВ 8 20 км 9/1 540 м
[Cb cap Ac trans Ci sp]
+29.5 +24.4 70 +41 +45 опасность
перегрева
1011.9 1010.2
В 5 10 км 2/2 750 м +31.0 +23.0 62 +41 +46 опасность
перегрева
1012.0 1010.0
ЮВ 4 10 км 2/2 900 м +32.0 +22.0 56 +41 +49 опасность
перегрева
1012.0 1010.0
ЮВ 9 20 км 9/3 1050 м
[Cu Sc Ac trans Ci sp]
+33.3 +20.4 46 +39 +47 очень
душно
1011.2 1009.5
В 4 10 км 2/2 1050 м +34.0 +20.0 44 +40 +51 опасность
солнечного
удара
1010.0 1008.0
ЮВ 5 10 км 2/2 1050 м +35.0 +20.0 42 +41 +48 опасность
перегрева
1009.0 1007.0
СВ 7 20 км 9/5 540 м
[Cb cap Ac cuf Ci sp]
+34.6 +21.1 44 +42 +46 опасность
перегрева
1008.5 1006.8
В 7 10 км гроза, ливневой дождь 5/5 450 м
[Cb]
+28.0 +25.0 84 +40 +42 очень
душно
1008.0 1006.0
Местоположение метеостанции Аэропорт Йохан Пенгель (Суринам): широта 5.45 долгота -55.19 высота над уровнем моря 15 м.
В архиве по умолчанию представлена погода в Аэропорту Йохан Пенгель за последнюю неделю. Архивные данные за месяц целиком и за предыдущие месяцы, начиная с января 2011 года, Вы можете получить, выбрав интересующий диапазон дат из раскрывающегося списка и нажав кнопку "Найти!".
*Определитесь, кто Вы:
Внимание! Время в таблицах - всемирное. Для получения местного времени необходимо прибавить поправку, которая равна -3 ч.
Смотрите также архив погоды в соседних городах и на ближайших метеорологических станциях:
Партнеры нашего сайта:      
Пояснения к столбцам:
  • Ветер - указаны скорость ветра в м/с - средняя за 10 мин, порывы в срок и между сроками (в фигурных скобках) и направление, откуда дует ветер: С - северный,
  • СВ - северо-восточный, В - восточный, ЮВ - юго-восточный, Ю - южный, ЮЗ - юго-западный, З - западный, СЗ - северо-западный.
  • Видимость - горизонтальная дальность видимости в метрах или километрах. При видимости от 1 до 10 км при отсутствии осадков обычно наблюдается дымка, при ухудшении видимости до 1 км и менее - туман. В сухую погоду видимость может ухудшаться дымом, пылью или мглою.
  • Явления - указаны атмосферные явления, наблюдавшиеся в срок или в последний час перед сроком; фигурными скобками обозначены явления, наблюдавшиеся между сроками (за 1-3 часа до срока); квадратными скобками обозначены град или гололедные отложения с указанием их диаметра в мм.
  • Облачность - указаны через наклонную черту общая и нижняя облачность в баллах и высота нижней границы облаков в метрах; квадратными скобками обозначены формы облаков: Ci - перистые, Cs - перисто-слоистые, Cc - перисто-кучевые, Ac - высококучевые, As - высокослоистые, Sc - слоисто-кучевые, Ns - слоисто-дождевые, Cu - кучевые, Cb - кучево-дождевые. Подробнее классификацию облаков см. в Атласе облаков (PDF).
  • T - Температура воздуха - температура, измеренная на высоте 2 м над землей.
  • Td - Температура точки росы - температура, при понижении до которой содержащийся в воздухе водяной пар достигнет насыщения.
  • f - Относительная влажность воздуха - влажноcть воздуха, измеренная на высоте 2 м над землей.
  • Te - Эффективная температура - температура, которую ощущает одетый по сезону человек в тени. Характеристика душности погоды. При расчете учитывается влияние влажности воздуха и скорости ветра на теплоощущения человека.
  • Tes - Эффективная температура на солнце - температура, которую ощущает человек, с поправкой на солнечный нагрев. Характеристика знойности погоды. Зависит от высоты солнца над горизонтом, облачности и скорости ветра. Ночью, в пасмурную погоду, а также при ветре 12 м/с и более поправка равна нулю.
  • P - Атмосферное давление - приведенное к уровню моря атмосферное давление.
  • Po - Атмосферное давление - измеренное на уровне метеостанции атмосферное давление.
  • Tmin - Минимальная температура - минимум температуры воздуха на высоте 2 м над землей.
  • Tmax - Максимальная температура - максимум температуры воздуха на высоте 2 м над землей.
  • R - Количество осадков - Количество выпавших осадков за период времени, мм. При наведении курсора мыши на число - период времени, за который выпало указанное количество осадков.
  • R24 - Количество осадков - Количество выпавших осадков за 24 часа, мм.
  • S - Снежный покров - Высота снежного покрова, см. При наведении курсора мыши на число - состояние снежного покрова и степень покрытия местности в баллах.